Wetbulb
55.69 55.40 55.49 55.52 54.88 54.73 54.48 54.26 55.11 55.10 54.83 55.14 55.71 56.19 56.63 57.21 58.60 57.36 52.50 58.48 61.96 63.35 62.18 59.42 58.58 59.10 59.38 57.22 59.36 58.71 50.22 47.83 51.16 52.05 52.59 56.22 55.43 57.94 59.18 58.95 60.54 61.25 61.45 64.35 64.81
55.95 55.79 55.38 55.34 55.41 54.85 54.90 54.23 54.71 54.81 54.41 54.47 55.04 55.71 56.21 56.65 54.96 51.94 58.58 62.96 63.77 64.04 60.01 56.88 54.96 56.75 54.96 55.02 55.97 53.77 50.12 49.72 54.54 55.01 53.55 54.81 55.26 56.19 56.68 57.68 57.97 59.79 63.07 65.16 64.48
55.68 55.68 55.42 55.38 55.41 55.28 54.70 54.43 54.29 54.21 53.87 53.90 54.52 55.27 55.82 55.84 49.43 48.87 61.16 62.11 63.75 63.37 61.13 58.72 58.03 55.92 52.83 54.81 53.34 54.24 49.82 53.01 53.92 54.57 54.65 53.69 54.80 56.78 55.60 55.35 57.94 58.34 61.35 62.47 63.20
55.58 55.37 55.44 55.25 55.49 55.13 54.89 54.45 54.19 54.22 53.70 53.52 54.28 54.79 55.33 52.83 37.42 56.44 59.38 61.70 63.12 61.95 59.85 57.39 56.16 53.25 51.36 49.97 53.81 50.61 53.85 53.69 54.10 54.25 54.42 53.69 55.34 54.33 55.64 56.77 59.02 60.58 62.82 62.38 62.14
55.16 54.76 55.08 55.21 55.32 55.14 54.69 54.26 54.23 54.14 53.53 53.38 53.66 54.48 52.58 45.47 45.88 57.06 58.87 60.04 61.15 59.24 56.86 55.33 53.89 52.92 49.96 51.07 52.15 50.98 52.63 53.87 55.13 54.57 54.72 55.41 54.06 54.03 54.91 58.54 59.18 61.92 62.05 61.96 62.45
55.15 55.21 54.72 54.90 54.78 54.49 54.41 54.09 53.95 54.04 53.62 53.32 53.39 54.22 48.50 39.50 52.85 55.89 55.62 56.18 57.73 57.11 56.25 55.81 54.33 55.18 51.89 51.17 50.51 53.07 52.92 53.01 54.51 54.34 54.52 52.67 53.96 53.91 55.67 59.37 59.55 61.22 60.92 61.97 62.48
54.86 54.43 54.52 54.53 54.19 53.98 54.11 53.81 53.50 53.85 53.24 52.94 53.07 52.39 46.17 43.71 52.82 55.70 54.03 54.37 57.78 57.45 54.99 56.94 56.80 54.24 53.48 49.95 53.90 52.66 49.35 51.89 53.01 53.73 53.08 54.58 51.00 51.60 57.20 59.24 59.09 60.09 60.71 60.71 62.16
55.01 54.52 54.67 54.02 54.05 53.92 53.90 53.42 53.50 53.08 52.68 52.23 52.65 50.99 42.34 51.20 53.52 51.80 53.56 54.25 57.88 58.74 57.43 57.72 57.26 54.99 52.79 53.69 51.30 48.38 48.95 45.05 51.54 53.17 53.29 53.01 47.90 53.54 57.30 58.18 57.96 59.32 58.98 59.07 60.48
54.26 54.61 54.03 53.73 54.62 54.25 53.68 53.09 52.70 52.29 51.73 52.30 50.08 47.63 41.20 52.27 48.68 52.31 55.06 51.46 55.16 56.71 57.19 57.40 54.69 52.29 52.32 47.46 45.17 46.19 40.82 43.36 47.31 53.08 51.81 51.42 48.83 53.62 56.35 57.70 57.96 58.56 58.06 58.46 59.40
54.00 54.14 53.71 53.64 53.42 54.00 53.19 52.55 50.45 50.37 50.31 51.69 50.30 42.88 45.29 43.28 48.64 51.83 54.93 54.76 52.08 52.78 52.67 51.23 49.67 47.55 47.84 44.58 36.80 40.13 40.61 43.07 44.97 49.37 50.93 48.98 49.82 52.33 55.11 56.61 57.03 58.87 58.97 58.34 59.29
54.26 53.68 53.57 53.88 53.39 53.45 51.57 48.54 42.77 41.69 44.24 40.56 40.76 41.61 42.66 47.18 49.79 48.88 53.25 51.71 51.43 47.67 44.94 48.76 42.51 39.73 43.90 46.08 45.92 45.34 43.76 42.40 46.98 49.89 48.33 48.65 48.77 51.76 54.28 55.10 55.39 58.04 58.93 59.38 60.29
53.87 53.60 53.55 53.62 53.10 51.69 49.21 42.44 42.48 46.12 37.55 41.70 41.96 42.28 44.66 46.11 39.80 44.25 51.74 46.54 45.59 40.71 45.95 44.59 38.50 45.31 47.61 47.81 45.57 44.34 43.19 42.38 45.38 46.51 47.61 48.48 47.80 51.60 53.59 54.40 56.10 57.25 58.51 58.99 60.18
54.02 53.94 53.43 53.58 51.27 49.32 46.02 44.45 50.49 48.30 36.43 36.64 40.22 40.74 42.33 45.02 39.52 40.25 48.33 46.21 43.92 41.18 41.56 40.77 43.01 47.11 45.85 44.52 41.46 42.11 39.64 42.36 42.25 45.32 46.80 47.01 45.76 48.44 52.15 53.91 55.51 57.76 59.62 59.69 59.98
54.01 53.45 53.28 51.76 47.99 47.57 43.62 48.66 49.45 47.00 31.42 32.70 36.71 41.32 44.14 43.72 37.50 45.96 47.65 46.26 43.28 39.78 41.18 40.84 46.45 44.74 44.50 42.88 44.11 37.95 43.57 42.32 43.20 41.55 38.35 46.17 38.12 45.95 49.63 50.69 52.37 55.49 57.75 59.20 59.90
53.32 52.98 51.79 49.54 46.85 43.89 46.35 48.81 48.12 44.76 19.17 33.36 37.40 46.87 44.32 39.23 39.65 41.90 48.26 45.50 39.95 40.17 40.23 37.31 40.02 42.38 42.01 43.09 45.87 42.04 45.53 43.12 42.78 41.57 40.82 41.19 39.05 45.22 49.12 47.68 50.49 53.76 57.10 59.19 60.20
51.15 50.23 49.69 49.15 49.35 47.39 48.72 47.84 44.69 30.02 18.53 29.16 37.05 35.31 36.77 38.55 38.22 41.01 41.43 45.97 44.54 39.19 40.20 39.25 42.76 41.57 43.11 46.61 47.15 47.88 45.12 42.87 43.13 40.80 33.07 39.49 39.23 41.11 45.98 48.46 50.63 53.11 56.50 58.76 59.15
49.93 49.21 49.55 49.32 44.89 48.70 47.73 44.11 30.16 22.20 29.60 28.13 29.93 34.26 33.83 33.55 35.28 36.52 37.00 35.43 35.09 31.35 33.50 37.75 39.02 42.04 43.94 43.40 46.49 45.44 40.89 32.47 30.81 30.45 32.79 39.69 38.78 43.17 48.35 50.02 51.91 51.63 54.76 56.99 55.85
49.61 49.97 47.36 47.12 48.11 47.47 44.53 35.86 21.48 21.91 24.10 31.91 32.18 33.12 29.59 32.26 33.63 34.70 33.12 33.13 37.84 37.47 34.61 31.86 31.46 39.12 44.48 44.04 41.75 42.56 41.06 34.95 29.72 30.94 32.83 38.25 34.89 41.15 47.47 49.00 48.72 51.62 52.44 52.54 51.90
47.99 49.20 47.69 47.05 47.46 46.83 39.56 26.68 25.94 26.09 30.12 30.17 31.41 28.50 30.09 31.01 30.45 32.49 32.06 32.30 35.79 38.85 33.00 32.53 32.69 42.53 42.74 45.25 45.43 41.31 37.62 40.98 34.80 33.07 33.93 36.57 39.59 45.35 46.45 46.32 45.72 46.98 48.49 48.74 49.23
47.66 46.26 44.46 46.20 46.83 44.98 33.76 27.86 27.88 30.57 32.22 32.42 25.49 29.18 26.43 28.56 28.32 29.69 31.08 35.83 34.22 39.14 42.06 36.43 32.45 39.83 42.68 44.46 43.72 42.16 42.46 34.77 35.56 30.23 31.18 34.69 35.69 40.17 41.53 44.29 44.36 44.46 46.53 47.35 47.29
46.33 39.35 44.48 46.10 46.04 40.26 29.53 30.02 28.17 32.19 34.04 30.16 27.39 26.16 28.32 28.24 29.14 29.66 30.80 35.34 37.53 36.61 41.03 39.45 35.09 35.65 40.08 36.23 36.88 38.82 37.36 38.89 39.55 36.79 32.91 31.42 36.46 41.40 44.27 46.34 44.61 45.04 46.33 45.96 45.49
44.38 32.56 44.45 45.81 34.11 30.45 30.93 29.85 30.31 31.26 34.72 32.83 32.01 29.91 28.05 29.40 29.73 29.23 30.07 34.08 40.03 39.15 34.57 39.51 35.83 30.53 32.86 37.28 40.06 39.87 39.72 40.34 36.63 32.60 34.38 34.15 37.29 41.03 42.98 47.57 46.31 45.52 45.61 46.00 45.51
35.01 39.94 44.64 43.74 30.61 31.19 30.68 28.79 30.25 30.26 31.37 30.74 29.33 31.78 33.61 28.90 26.21 31.00 32.60 38.39 39.66 38.34 36.10 39.65 34.89 29.85 31.62 35.80 38.79 36.84 39.49 39.80 38.68 38.57 33.60 34.54 36.71 41.10 44.13 46.00 46.03 44.67 45.02 44.72 44.57
40.06 31.28 35.65 38.76 35.08 31.46 29.44 29.44 28.39 33.02 31.49 32.66 31.34 33.21 31.32 29.61 32.07 29.42 31.37 37.13 40.25 39.09 41.03 41.81 35.66 32.93 30.56 33.11 36.47 34.22 37.01 39.02 39.12 35.50 33.16 35.36 36.13 37.78 40.48 44.28 44.30 43.64 43.61 43.74 44.54
39.07 31.95 29.89 31.02 32.54 32.01 31.08 31.10 28.88 29.54 32.81 34.20 30.64 30.90 30.55 28.05 27.83 28.06 31.22 33.94 37.01 39.27 39.90 39.07 32.62 35.04 34.17 34.99 35.96 37.37 36.35 37.48 37.38 39.08 37.05 38.92 36.79 39.38 40.67 44.83 44.78 44.25 44.10 45.08 45.68
36.75 34.58 30.09 30.81 29.44 29.84 30.90 29.49 28.81 30.09 30.60 30.89 30.39 32.57 32.62 29.07 30.24 27.11 30.21 31.59 31.80 37.82 37.96 39.70 33.49 35.81 32.09 35.12 36.33 34.14 37.93 37.60 37.68 38.05 38.42 37.14 37.75 41.25 42.73 43.96 46.31 45.33 45.16 46.33 45.79
39.29 37.84 37.58 31.46 28.94 28.69 30.67 29.91 28.94 30.90 32.64 33.49 33.23 31.90 29.69 31.85 34.75 34.21 33.74 33.74 32.46 32.07 35.82 36.09 34.50 32.65 29.84 32.87 33.31 30.46 34.42 36.80 37.76 39.98 40.23 35.58 38.11 40.75 39.37 40.45 44.79 46.15 46.46 46.70 47.66
MSLP
1018.89 1018.90 1018.73 1018.67 1018.80 1018.85 1018.83 1018.71 1018.58 1018.42 1018.28 1018.13 1017.86 1017.70 1017.40 1017.05 1016.55 1016.02 1015.20 1014.63 1014.46 1014.56 1014.80 1014.91 1014.99 1014.43 1014.32 1013.72 1012.67 1011.97 1010.75 1009.03 1007.59 1007.10 1007.33 1008.04 1007.86 1008.18 1008.45 1008.63 1009.17 1009.96 1009.99 1010.70 1013.07
1018.65 1018.64 1018.52 1018.71 1018.52 1018.46 1018.66 1018.69 1018.53 1018.38 1018.25 1018.07 1017.83 1017.63 1017.37 1017.04 1016.26 1014.84 1014.47 1014.20 1014.16 1014.21 1014.57 1014.54 1014.48 1014.41 1014.22 1013.32 1012.54 1011.98 1010.37 1009.13 1008.02 1008.00 1007.97 1008.36 1008.35 1008.16 1008.49 1008.66 1009.33 1010.33 1011.09 1011.98 1013.19
1018.33 1018.36 1018.35 1018.33 1018.26 1018.40 1018.48 1018.51 1018.43 1018.36 1018.21 1018.03 1017.76 1017.62 1017.36 1017.01 1015.74 1013.50 1013.81 1013.65 1013.95 1014.13 1014.17 1014.32 1014.32 1013.97 1013.37 1012.94 1012.84 1011.89 1010.36 1009.47 1009.14 1009.34 1009.14 1008.78 1008.60 1008.56 1008.26 1008.28 1008.52 1009.49 1011.17 1012.40 1012.81
1017.92 1018.05 1018.04 1017.99 1018.15 1018.16 1018.25 1018.28 1018.26 1018.25 1018.15 1017.94 1017.75 1017.56 1017.32 1016.76 1014.92 1013.28 1013.64 1013.60 1013.58 1013.79 1014.04 1013.92 1013.84 1013.70 1013.14 1012.90 1012.56 1012.30 1010.76 1010.01 1009.81 1010.04 1009.60 1009.10 1009.28 1008.77 1008.43 1008.29 1008.85 1009.08 1011.14 1012.31 1012.58
1017.57 1017.76 1017.76 1017.89 1017.87 1017.95 1018.11 1018.22 1018.11 1018.05 1017.94 1017.84 1017.68 1017.44 1017.11 1015.74 1013.75 1013.12 1013.61 1013.45 1013.52 1013.78 1013.58 1013.74 1013.60 1013.29 1012.94 1012.73 1012.65 1011.59 1010.55 1010.52 1010.16 1010.18 1010.01 1009.70 1009.30 1009.00 1008.69 1008.44 1009.40 1009.75 1011.49 1012.23 1012.55
1017.17 1017.28 1017.49 1017.57 1017.58 1017.76 1017.85 1017.89 1017.87 1017.89 1017.83 1017.73 1017.55 1017.36 1016.77 1014.84 1013.36 1013.23 1013.63 1013.28 1013.17 1013.57 1013.58 1013.92 1013.42 1013.27 1013.06 1012.49 1012.17 1010.79 1010.76 1010.65 1010.31 1010.24 1010.14 1009.83 1009.27 1009.35 1008.89 1009.19 1009.59 1010.53 1011.64 1012.23 1012.42
1016.71 1016.93 1017.10 1017.26 1017.38 1017.48 1017.54 1017.63 1017.71 1017.68 1017.70 1017.57 1017.40 1017.00 1015.97 1014.12 1013.34 1013.47 1013.42 1013.08 1012.81 1012.99 1013.05 1013.06 1013.53 1013.33 1012.66 1012.67 1012.22 1011.55 1011.37 1011.15 1010.46 1010.35 1010.05 1009.65 1009.23 1008.75 1008.94 1009.48 1009.92 1010.69 1011.80 1012.63 1012.57
1016.28 1016.60 1016.77 1017.05 1017.16 1017.18 1017.35 1017.57 1017.63 1017.56 1017.55 1017.45 1017.23 1016.76 1015.01 1013.51 1013.37 1013.20 1013.11 1012.78 1012.58 1012.48 1012.72 1012.91 1013.58 1013.50 1012.95 1012.70 1012.42 1012.26 1011.90 1011.18 1010.18 1010.16 1009.97 1009.76 1008.41 1008.55 1009.24 1009.73 1010.12 1010.84 1012.01 1012.86 1013.15
1015.93 1016.28 1016.58 1016.83 1016.95 1017.09 1017.34 1017.52 1017.58 1017.52 1017.35 1017.20 1016.85 1016.30 1014.19 1013.73 1013.40 1012.88 1012.75 1012.73 1012.60 1012.63 1012.95 1013.23 1013.76 1012.64 1012.76 1012.33 1012.06 1012.11 1011.47 1011.22 1010.05 1009.88 1009.72 1009.57 1008.55 1008.66 1009.50 1009.51 1009.85 1011.03 1012.04 1012.78 1013.21
1015.76 1016.18 1016.51 1016.72 1016.86 1017.13 1017.41 1017.59 1017.44 1017.36 1016.91 1016.59 1016.30 1016.20 1014.23 1013.68 1013.49 1013.18 1012.70 1012.80 1012.61 1012.88 1012.59 1013.36 1013.46 1012.33 1012.12 1012.18 1011.89 1011.51 1011.65 1011.35 1010.06 1009.96 1009.71 1009.35 1008.80 1008.79 1009.31 1009.14 1009.77 1010.42 1011.60 1012.34 1012.80
1015.75 1016.14 1016.55 1016.68 1016.98 1017.29 1017.65 1017.56 1017.45 1017.14 1016.69 1015.72 1015.57 1015.02 1014.31 1014.22 1013.48 1012.82 1012.58 1012.55 1012.65 1012.65 1012.04 1012.42 1012.81 1011.79 1011.42 1011.45 1011.52 1011.54 1011.67 1011.71 1010.91 1009.97 1009.96 1009.20 1009.02 1008.52 1008.99 1009.18 1009.90 1010.00 1010.48 1011.26 1011.63
1015.88 1016.30 1016.64 1016.87 1017.28 1017.65 1017.49 1017.16 1017.58 1017.94 1016.54 1016.00 1015.77 1015.52 1014.96 1014.71 1013.64 1012.63 1012.83 1012.54 1012.47 1012.27 1012.05 1012.26 1011.67 1011.31 1011.22 1011.57 1011.88 1012.00 1011.81 1012.05 1011.80 1011.51 1010.84 1009.51 1008.96 1008.59 1008.34 1008.98 1009.48 1009.72 1009.92 1010.45 1011.00
1016.17 1016.49 1016.75 1017.20 1017.74 1017.78 1017.48 1017.71 1017.84 1017.70 1016.75 1015.78 1015.76 1015.42 1015.14 1014.93 1013.65 1012.89 1012.96 1012.33 1011.87 1012.17 1012.35 1011.61 1011.06 1010.97 1011.25 1011.65 1012.07 1012.21 1012.56 1012.28 1012.44 1012.46 1011.81 1010.00 1009.16 1008.57 1008.24 1008.42 1008.87 1009.30 1009.39 1010.05 1010.67
1016.54 1016.90 1017.14 1017.54 1017.95 1017.76 1017.73 1018.13 1018.13 1017.99 1017.03 1016.00 1015.36 1015.32 1015.07 1014.69 1013.85 1013.47 1012.99 1012.66 1012.39 1012.53 1012.76 1012.52 1011.15 1011.09 1011.31 1011.44 1011.97 1012.35 1012.86 1013.11 1013.12 1013.20 1011.98 1011.06 1008.91 1007.90 1007.67 1007.80 1008.37 1008.77 1009.11 1009.70 1010.65
1017.10 1017.37 1017.75 1017.82 1017.93 1017.97 1018.78 1018.46 1018.28 1018.12 1017.28 1016.36 1015.48 1015.48 1015.12 1014.87 1014.30 1013.39 1013.31 1012.74 1012.07 1012.60 1013.50 1013.21 1012.40 1011.99 1011.52 1010.87 1011.44 1011.54 1012.48 1013.05 1013.70 1013.26 1012.77 1012.00 1011.16 1007.54 1007.40 1007.38 1007.69 1008.34 1009.00 1009.73 1010.91
1017.79 1018.08 1018.17 1017.99 1018.15 1019.07 1018.79 1018.45 1018.34 1018.29 1017.20 1016.62 1016.08 1015.53 1014.88 1014.78 1014.25 1013.80 1013.33 1013.21 1012.86 1013.11 1013.42 1013.35 1013.28 1012.93 1012.10 1011.08 1011.15 1011.56 1012.48 1013.23 1013.56 1013.52 1013.06 1011.91 1011.26 1008.90 1007.11 1007.10 1007.36 1008.11 1008.96 1009.89 1011.21
1018.36 1018.44 1018.49 1018.65 1019.11 1019.18 1018.89 1018.34 1018.43 1018.20 1018.17 1017.68 1016.92 1016.30 1015.86 1015.24 1014.63 1014.14 1013.35 1013.06 1012.37 1012.73 1012.83 1012.75 1012.61 1012.70 1012.62 1011.63 1011.59 1011.89 1012.31 1013.43 1014.30 1014.01 1013.19 1012.25 1011.52 1009.13 1008.00 1007.83 1007.72 1008.36 1009.47 1010.69 1012.25
1018.74 1018.55 1019.31 1019.42 1019.52 1019.29 1019.03 1018.69 1018.71 1019.01 1018.74 1018.39 1017.69 1016.96 1016.67 1016.38 1015.45 1014.59 1013.84 1012.87 1012.63 1012.41 1011.90 1012.51 1012.61 1012.52 1012.25 1011.48 1011.37 1011.61 1011.80 1012.17 1012.66 1012.76 1013.02 1012.61 1011.19 1009.86 1009.37 1009.40 1009.53 1009.49 1010.75 1012.16 1013.40
1019.05 1019.01 1019.12 1019.60 1019.60 1019.30 1019.07 1019.30 1019.32 1019.42 1019.34 1018.92 1018.05 1017.76 1017.36 1017.18 1016.92 1015.28 1014.39 1013.13 1012.38 1012.34 1012.11 1012.86 1012.78 1012.80 1012.82 1012.44 1011.85 1012.40 1012.19 1012.39 1012.17 1013.02 1012.51 1011.99 1011.30 1009.89 1009.83 1010.09 1010.67 1011.20 1012.20 1013.36 1014.45
1019.00 1019.16 1019.57 1019.98 1019.76 1019.20 1019.53 1019.77 1020.04 1020.09 1019.87 1019.71 1019.19 1018.83 1018.22 1017.90 1017.35 1016.15 1014.65 1013.45 1013.05 1012.40 1012.12 1013.22 1013.33 1013.01 1012.95 1013.19 1012.75 1012.37 1012.44 1012.97 1012.91 1012.56 1011.42 1011.00 1010.62 1008.99 1009.63 1010.00 1011.03 1012.09 1012.90 1014.10 1015.42
1019.20 1019.43 1020.08 1020.02 1019.81 1019.53 1020.24 1020.51 1020.60 1020.46 1020.22 1020.21 1019.84 1019.56 1019.09 1018.50 1017.82 1016.77 1015.05 1013.91 1013.32 1012.70 1012.53 1012.96 1013.95 1014.03 1013.91 1014.01 1013.24 1013.00 1012.50 1012.60 1012.14 1011.83 1010.69 1010.29 1009.45 1008.91 1008.80 1009.68 1010.86 1012.25 1013.57 1014.96 1016.18
1019.67 1019.99 1020.28 1020.09 1020.25 1021.00 1020.91 1021.14 1021.25 1020.66 1020.38 1020.00 1019.97 1019.94 1019.69 1019.23 1018.34 1017.33 1015.48 1014.09 1013.63 1013.17 1012.72 1012.98 1013.45 1014.29 1014.55 1014.25 1014.07 1013.37 1012.42 1012.04 1011.71 1011.83 1011.28 1010.85 1009.63 1009.65 1009.57 1009.74 1011.09 1012.52 1014.17 1015.65 1016.80
1020.10 1020.18 1020.35 1020.44 1020.71 1021.10 1021.42 1021.39 1021.19 1020.76 1020.33 1020.16 1019.94 1019.72 1019.73 1019.54 1019.06 1017.49 1016.11 1014.57 1014.05 1013.69 1012.87 1012.91 1013.44 1014.18 1014.40 1014.64 1014.32 1013.27 1012.86 1011.96 1011.74 1011.42 1011.35 1010.79 1009.89 1010.24 1010.25 1010.57 1011.60 1012.79 1014.35 1015.90 1017.16
1020.30 1020.77 1020.98 1021.06 1021.45 1021.40 1021.41 1021.23 1021.05 1020.77 1020.56 1020.24 1019.84 1019.60 1019.90 1019.50 1019.01 1017.88 1016.75 1015.40 1014.72 1014.17 1013.80 1013.81 1013.85 1013.77 1014.30 1014.20 1013.79 1013.31 1012.87 1012.36 1012.00 1011.82 1011.33 1010.49 1010.09 1010.53 1010.72 1011.33 1012.41 1013.76 1014.88 1015.93 1017.21
1020.65 1021.37 1022.20 1021.89 1021.69 1021.52 1021.50 1021.09 1020.78 1020.64 1020.73 1020.53 1019.95 1019.86 1019.82 1019.34 1018.93 1018.20 1017.39 1016.51 1015.39 1014.88 1014.48 1014.25 1013.86 1014.15 1014.48 1014.55 1014.04 1013.42 1013.00 1012.66 1012.17 1011.69 1011.37 1010.52 1010.42 1010.37 1010.83 1011.62 1012.71 1013.99 1015.40 1016.28 1017.20
1020.75 1021.37 1022.47 1022.14 1022.11 1021.73 1021.34 1020.79 1020.58 1020.45 1020.41 1020.05 1020.00 1019.70 1019.96 1019.67 1019.11 1018.53 1018.07 1017.15 1015.95 1014.70 1014.59 1014.42 1014.11 1014.41 1014.80 1014.73 1014.33 1013.61 1013.03 1012.82 1012.58 1012.10 1011.67 1011.40 1010.97 1011.07 1011.41 1012.00 1012.95 1013.77 1014.70 1015.47 1016.73
1021.02 1021.34 1021.35 1021.72 1022.04 1021.88 1020.90 1020.73 1020.52 1020.46 1019.70 1019.53 1019.46 1019.69 1019.71 1019.57 1019.30 1019.15 1018.72 1018.15 1017.58 1016.89 1015.31 1014.71 1014.69 1014.82 1015.08 1015.07 1014.61 1014.13 1013.20 1012.96 1012.83 1012.40 1012.07 1011.71 1011.58 1011.82 1012.27 1012.82 1013.13 1013.62 1014.34 1015.41 1016.20
Wind_Speed
12 12 11 11 10 10 10 11 10 10 11 12 11 11 12 14 15 8 12 6 4 7 4 2 4 5 7 11 12 5 6 11 16 10 7 5 5 5 4 7 3 3 5 7 21
15 14 12 12 12 11 10 10 9 10 10 11 12 12 12 13 15 17 10 7 8 10 6 8 7 10 8 11 5 10 11 17 3 1 5 3 4 9 7 9 7 7 7 19 21
14 14 13 13 13 12 12 10 9 9 9 10 11 12 12 12 16 22 6 18 13 9 5 4 4 7 8 8 5 16 15 5 4 3 1 2 3 4 9 11 9 13 15 18 20
14 14 13 14 15 13 13 10 8 9 9 10 11 12 13 11 10 8 9 6 13 8 3 5 7 6 9 12 13 19 18 7 6 2 3 1 4 4 9 6 5 5 19 19 21
12 14 14 15 14 14 12 11 10 10 8 10 11 11 11 15 20 3 10 8 11 8 8 6 9 4 7 12 18 24 15 11 7 4 5 5 5 5 6 5 2 11 18 19 18
12 12 14 14 13 13 11 11 9 9 9 10 10 11 12 19 8 8 8 12 8 12 11 7 5 4 4 7 17 14 11 11 7 6 5 6 8 3 2 4 8 14 15 16 17
12 13 13 12 12 11 10 9 8 9 9 10 10 9 12 18 4 6 12 11 10 16 15 8 4 7 5 5 8 3 14 14 14 10 7 6 9 7 6 6 10 12 13 14 15
11 12 12 10 10 10 9 7 8 7 9 11 10 10 11 6 11 14 13 11 8 13 16 5 6 11 4 3 9 6 5 15 16 15 7 7 12 11 7 8 10 11 11 13 14
10 11 10 9 10 8 8 6 5 7 10 10 9 8 12 1 8 6 8 7 6 4 6 6 4 5 6 4 4 11 8 20 15 16 9 13 10 14 6 9 9 10 11 12 13
9 8 9 8 7 8 6 4 3 7 7 6 7 8 5 5 9 7 8 6 4 4 7 8 6 6 5 10 7 8 16 15 21 15 13 14 11 5 7 8 6 11 13 13 14
8 7 8 6 8 10 7 4 5 5 6 7 5 12 5 11 5 5 3 6 3 2 6 12 9 13 17 14 7 8 13 15 22 11 16 16 15 11 7 7 8 11 14 15 16
7 7 6 8 10 7 3 4 5 4 8 1 6 8 8 6 7 2 3 8 5 8 9 6 12 13 8 6 5 4 16 10 6 3 9 16 15 14 10 11 14 12 13 15 16
8 7 9 12 11 3 1 3 4 5 6 1 1 4 4 6 5 3 4 5 7 8 3 12 3 15 10 7 9 4 2 13 4 4 11 4 15 15 15 11 9 12 13 14 17
9 11 13 12 5 1 1 4 5 4 4 4 2 3 3 4 3 5 5 5 5 5 2 6 7 9 10 12 9 6 8 6 11 7 6 7 9 19 18 15 13 12 12 14 16
13 13 9 3 3 0 5 4 5 3 5 5 4 3 4 5 7 4 2 4 6 4 3 3 2 7 10 12 14 6 16 11 7 10 5 8 6 12 18 18 16 14 14 15 15
15 10 4 3 3 3 5 5 3 4 3 4 5 6 6 2 2 5 2 3 2 3 3 2 2 1 3 7 13 2 9 7 2 1 3 7 11 14 13 17 17 15 14 16 15
15 16 6 3 3 6 6 4 4 5 2 5 4 7 9 4 3 2 1 6 6 5 5 1 2 1 3 7 4 12 10 3 3 3 1 4 9 8 4 1 10 14 14 13 14
11 8 6 6 4 5 3 1 5 2 2 4 5 9 4 5 2 2 3 6 9 5 5 5 5 5 1 6 4 14 8 4 3 4 4 1 6 7 5 6 2 7 12 13 14
2 3 3 6 7 3 2 3 4 1 1 5 8 3 1 3 3 2 3 6 4 10 5 5 5 2 3 6 6 5 6 4 5 3 3 5 4 12 6 5 7 11 13 14 13
1 1 3 8 6 4 2 3 0 0 2 3 4 3 4 4 2 2 4 0 4 9 10 4 2 3 2 3 1 4 10 5 1 5 5 6 3 6 9 12 11 12 14 15 14
2 2 3 6 3 1 2 1 2 4 3 2 3 4 5 4 2 4 4 4 5 7 12 7 2 3 2 4 0 5 4 3 2 3 2 4 4 4 3 13 14 13 13 15 16
1 1 4 4 1 1 2 1 2 3 6 5 3 5 4 4 4 5 6 4 3 6 12 6 2 3 2 3 5 5 5 7 4 4 1 3 3 3 2 11 13 15 14 15 16
1 2 2 3 2 1 1 3 3 3 6 4 5 7 2 3 5 7 7 4 8 5 7 8 5 2 3 2 2 3 3 3 4 2 4 3 3 2 4 10 12 16 17 15 15
1 1 2 2 1 2 2 1 3 3 6 5 8 6 4 6 9 5 5 6 4 10 14 6 1 5 4 3 1 4 5 6 2 2 5 3 3 6 8 11 13 14 14 15 14
2 0 2 1 1 4 2 2 5 3 4 3 5 10 7 4 4 9 13 18 16 11 11 9 5 4 2 3 2 2 10 10 9 3 4 4 3 3 9 11 14 15 15 15 15
2 2 2 1 3 2 5 3 5 2 4 3 6 5 7 8 9 6 4 8 13 9 12 15 3 5 2 6 5 1 5 5 2 2 3 1 2 5 6 9 13 16 18 18 16
1 2 2 4 3 2 2 2 3 1 7 9 8 8 11 11 7 7 11 12 8 9 6 9 4 4 2 3 4 3 9 8 5 6 2 2 5 7 7 11 14 16 17 16 16
Wind_Direction
280 281 284 277 275 281 292 296 298 297 301 302 301 309 315 319 305 256 252 240 165 146 150 106 226 233 231 233 238 255 235 235 219 224 132 137 205 182 64 133 169 120 15 106 144
277 272 270 272 273 274 275 287 295 289 300 302 300 301 309 315 294 268 253 245 197 202 198 185 186 184 200 200 222 224 224 231 33 70 108 132 264 154 187 164 165 143 120 122 156
267 269 270 270 268 267 268 272 283 282 294 301 299 298 304 306 283 266 1 224 211 199 218 176 186 210 187 197 171 221 239 200 178 116 30 68 159 260 222 189 178 180 149 156 164
264 265 264 262 261 260 263 264 270 274 288 299 303 300 301 277 240 79 358 298 219 185 250 194 189 199 183 196 183 243 218 190 152 144 352 50 338 230 234 81 28 155 155 168 171
263 256 259 258 258 260 259 261 258 266 279 292 299 300 293 237 240 38 351 339 209 194 217 260 194 201 181 185 195 218 186 214 209 257 286 303 261 281 260 202 147 129 152 176 174
257 244 247 254 257 252 249 246 259 262 272 286 298 303 259 254 266 278 327 315 227 196 215 202 244 197 215 214 217 193 192 198 202 235 263 271 276 269 110 133 150 149 161 178 176
262 244 241 251 258 244 233 235 256 256 274 289 295 286 263 250 274 269 304 291 296 201 209 207 243 217 159 202 220 246 203 233 229 230 265 249 242 220 103 174 157 163 162 178 178
253 236 230 242 255 235 220 218 243 260 283 292 292 284 269 276 275 270 271 284 264 228 209 171 235 257 222 127 159 161 182 210 225 222 233 212 225 179 150 183 170 165 163 179 179
230 225 220 231 233 218 204 220 246 278 286 284 268 240 271 11 245 261 264 265 295 191 186 156 216 227 172 193 139 193 186 216 207 182 187 196 228 134 185 181 171 169 174 177 183
210 211 208 229 216 167 179 210 247 282 243 248 257 262 250 327 321 303 262 246 266 238 155 197 212 197 202 180 196 195 191 203 212 183 210 195 236 143 177 153 214 178 172 181 186
174 188 198 206 159 153 152 231 234 207 230 266 340 280 319 329 278 228 266 203 215 275 194 192 201 240 201 210 217 179 178 196 214 164 190 205 211 221 157 146 224 205 178 181 183
152 167 179 148 139 129 254 289 24 348 298 235 281 273 284 314 289 222 257 212 193 225 217 203 232 218 228 157 108 42 185 199 216 32 235 206 214 224 186 194 194 212 185 179 174
133 149 135 126 118 170 320 16 339 314 268 131 328 301 322 306 300 321 284 216 227 223 273 247 119 217 214 204 193 229 348 209 179 139 274 214 227 228 228 216 197 210 186 181 175
117 117 119 131 184 161 116 20 333 323 282 346 11 74 297 294 257 317 298 274 199 207 188 282 238 196 188 181 207 195 195 266 215 185 203 206 229 206 213 208 207 196 197 183 169
103 107 98 11 108 190 2 333 320 255 281 19 6 337 321 306 329 45 289 252 250 136 247 76 340 230 229 202 183 222 176 174 241 188 162 197 255 244 189 207 201 198 190 185 174
81 79 107 99 76 19 322 300 262 245 243 355 325 328 322 19 317 313 218 255 339 129 102 230 170 223 295 237 190 143 134 75 127 125 218 181 197 219 194 214 203 195 180 179 160
81 66 53 14 43 333 319 258 263 258 347 360 338 342 335 324 318 311 236 201 208 196 215 295 191 230 259 206 255 197 146 116 193 179 210 198 197 266 31 161 224 176 171 153 151
77 75 69 58 350 330 288 297 265 56 311 318 292 316 312 13 304 350 252 240 223 265 205 207 228 156 260 236 160 189 191 163 207 173 123 37 215 223 330 59 337 224 161 149 153
304 60 66 17 349 302 314 247 349 28 4 338 316 317 67 6 294 323 267 273 255 212 211 188 251 143 201 324 166 160 199 40 108 13 142 186 257 273 199 179 141 142 149 154 144
349 27 51 341 333 272 46 293 235 280 327 355 311 18 321 15 268 276 283 229 250 231 246 121 291 54 79 322 143 222 142 97 58 180 213 158 237 244 196 189 165 161 162 148 138
327 4 39 337 281 32 276 326 298 233 229 221 313 304 282 319 284 302 289 278 239 227 223 143 69 24 188 212 354 141 160 189 186 267 286 149 192 36 239 183 173 164 153 148 147
334 321 21 312 320 47 273 226 291 247 224 263 262 261 268 337 294 258 266 258 2 263 213 212 278 257 289 275 287 290 175 177 193 190 54 339 103 50 309 152 162 151 150 150 146
97 295 76 302 264 210 177 274 271 235 231 228 240 230 216 270 248 224 282 310 273 264 216 166 209 276 184 143 249 175 248 128 119 53 196 164 111 98 151 146 157 153 152 149 148
148 303 4 44 333 277 273 244 269 233 266 261 280 250 232 238 232 273 277 284 350 253 263 237 240 217 344 14 64 172 191 226 163 158 163 233 144 173 161 159 155 154 157 159 164
9 110 75 285 189 250 297 293 278 284 207 222 251 235 241 252 251 243 254 266 276 262 243 239 220 168 62 294 315 211 172 183 192 203 206 152 165 133 164 176 170 168 167 156 164
157 183 156 66 297 266 212 237 256 224 240 221 238 230 240 263 252 283 314 268 246 203 218 215 293 173 89 316 323 12 208 153 216 276 285 338 160 106 114 157 167 169 173 180 184
115 125 257 120 162 226 223 241 254 244 235 233 261 284 276 280 279 279 277 272 277 319 199 192 196 166 134 328 296 279 201 182 169 211 278 291 42 147 151 172 184 181 188 195 196